Defiance, OH

1:32 AM EST on February 08, 2016 (GMT -0500)
Defiance Memorial

Weather History for KDFI - March, 2013

Change the Weather History Date:

Friday, March 15, 2013

  Actual Average Record
Temperature  
Mean Temperature 38 °F -  
Max Temperature 46 °F 45 °F 80 °F (2012)
Min Temperature 30 °F 26 °F 6 °F (1993)
Degree Days  
Heating Degree Days 27    
Moisture  
Dew Point 33 °F    
Average Humidity 83    
Maximum Humidity 96    
Minimum Humidity 63    
Precipitation  
Precipitation 0.05 in - - ()
Sea Level Pressure  
Sea Level Pressure 29.93 in    
Wind  
Wind Speed 4 mph (SW)    
Max Wind Speed 9 mph    
Max Gust Speed -    
Visibility 6 miles    
Events Rain    
Averages and records for this station are not official NWS values.
T = Trace of Precipitation, MM = Missing Value Source: NWS Daily Summary

Daily Weather History Graph

Daily Weather History Graph

Search for Another Location

Airport or City:

Trip Planner

Search our weather history database for the weather conditions in past years. The results will help you decide how hot, cold, wet, or windy it might be!

Date:

Astronomy

Mar. 15, 2013 Rise Set
Actual Time 7:49 AM EDT 7:44 PM EDT
Civil Twilight 7:21 AM EDT 8:12 PM EDT
Nautical Twilight 6:49 AM EDT 8:44 PM EDT
Astronomical Twilight 6:16 AM EDT 9:16 PM EDT
Moon 9:35 AM EDT (3/15) No Moon Set
Length of Visible Light 12h 50m
Length of Day
11h 55m
Waxing Crescent, 15% of the Moon is Illuminated
Mar 15
Waxing Crescent
Mar 19
First Quarter
Mar 27
Full
Apr 3
Last Quarter
Apr 10
New

Hourly Weather History & Observations

Time (EDT) Temp. Windchill Dew Point Humidity Pressure Visibility Wind Dir Wind Speed Gust Speed Precip Events Conditions
12:53 AM 32.0 °F 28.7 °F 21.9 °F 66% 30.13 in 10.0 mi SW 3.5 mph - N/A   Partly Cloudy
1:53 AM 33.1 °F 30.0 °F 24.1 °F 70% 30.12 in 10.0 mi SW 3.5 mph - N/A   Overcast
2:53 AM 33.1 °F 26.9 °F 24.1 °F 70% 30.09 in 10.0 mi SW 6.9 mph - N/A   Clear
3:53 AM 30.9 °F 26.2 °F 27.0 °F 85% 30.07 in 10.0 mi SW 4.6 mph - N/A   Partly Cloudy
4:05 AM 32.0 °F 28.7 °F 26.6 °F 80% 30.05 in 10.0 mi WSW 3.5 mph - N/A   Mostly Cloudy
4:15 AM 32.0 °F 25.6 °F 28.4 °F 87% 30.05 in 10.0 mi SW 6.9 mph - N/A   Overcast
4:53 AM 33.1 °F 28.7 °F 28.9 °F 85% 30.05 in 9.0 mi WSW 4.6 mph - N/A   Overcast
5:53 AM 32.0 °F 27.5 °F 28.9 °F 88% 30.03 in 7.0 mi SW 4.6 mph - N/A   Scattered Clouds
6:53 AM 32.0 °F 24.8 °F 28.9 °F 88% 30.01 in 6.0 mi SSW 8.1 mph - N/A   Clear
7:53 AM 30.9 °F 24.3 °F 28.9 °F 92% 29.99 in 6.0 mi SW 6.9 mph - N/A   Clear
8:40 AM 32.0 °F 26.4 °F 28.4 °F 87% 29.98 in 4.0 mi WSW 5.8 mph - N/A   Partly Cloudy
8:53 AM 32.0 °F 25.6 °F 28.9 °F 88% 30.00 in 4.0 mi WSW 6.9 mph - N/A   Partly Cloudy
9:53 AM 34.0 °F 28.0 °F 28.9 °F 82% 29.98 in 6.0 mi SW 6.9 mph - N/A   Haze
10:53 AM 37.0 °F 30.4 °F 30.9 °F 79% 29.96 in 7.0 mi WSW 9.2 mph - N/A   Clear
11:53 AM 37.9 °F 32.7 °F 30.9 °F 76% 29.96 in 7.0 mi WSW 6.9 mph - N/A   Partly Cloudy
12:53 PM 39.9 °F 35.8 °F 32.0 °F 73% 29.95 in 7.0 mi WSW 5.8 mph - N/A   Partly Cloudy
1:53 PM 42.1 °F 37.7 °F 33.1 °F 70% 29.92 in 8.0 mi WSW 6.9 mph - N/A   Partly Cloudy
2:53 PM 45.0 °F 41.2 °F 33.1 °F 63% 29.90 in 9.0 mi WSW 6.9 mph - N/A   Mostly Cloudy
3:53 PM 46.0 °F 42.5 °F 34.0 °F 63% 29.89 in 9.0 mi WSW 6.9 mph - N/A   Partly Cloudy
4:53 PM 46.0 °F 43.9 °F 34.0 °F 63% 29.88 in 9.0 mi WSW 4.6 mph - N/A   Overcast
5:53 PM 46.0 °F 44.8 °F 35.1 °F 66% 29.87 in 9.0 mi SW 3.5 mph - N/A   Overcast
6:53 PM 45.0 °F 42.6 °F 36.0 °F 71% 29.87 in 7.0 mi SW 4.6 mph - 0.00 in Rain Light Rain
7:53 PM 43.0 °F 40.3 °F 37.9 °F 82% 29.88 in 7.0 mi SW 4.6 mph - 0.00 in Rain Light Rain
8:53 PM 42.1 °F - 39.0 °F 89% 29.87 in 4.0 mi Calm Calm - 0.01 in Rain Light Rain
9:51 PM 41.0 °F - 39.2 °F 93% 29.84 in 2.5 mi Calm Calm - 0.02 in Rain Light Rain
9:53 PM 41.0 °F - 39.0 °F 93% 29.86 in 2.5 mi Calm Calm - 0.02 in Rain Light Rain
10:08 PM 41.0 °F - 39.2 °F 93% 29.84 in 2.5 mi Calm Calm - 0.01 in Rain Light Rain
10:34 PM 41.0 °F - 39.2 °F 93% 29.83 in 1.8 mi Calm Calm - 0.02 in Rain Light Rain
10:53 PM 41.0 °F - 39.9 °F 96% 29.84 in 1.8 mi Calm Calm - 0.02 in Rain Light Rain
10:59 PM 41.0 °F 38.0 °F 39.2 °F 93% 29.82 in 2.5 mi SE 4.6 mph - 0.00 in Rain Light Rain
11:11 PM 41.0 °F 39.0 °F 39.2 °F 93% 29.82 in 2.0 mi ESE 3.5 mph - 0.00 in   Overcast
11:20 PM 41.0 °F - 39.2 °F 93% 29.82 in 1.8 mi Calm Calm - 0.00 in   Overcast
11:33 PM 41.0 °F - 39.2 °F 93% 29.82 in 2.0 mi Calm Calm - 0.00 in Rain Light Rain
11:40 PM 41.0 °F - 39.2 °F 93% 29.81 in 1.8 mi Calm Calm - 0.00 in   Overcast
11:53 PM 41.0 °F 39.0 °F 39.0 °F 93% 29.82 in 1.5 mi East 3.5 mph - 0.00 in Rain Light Rain